Year,Month,Day,Hour,Minute,Value (Times are PST for temperature in C)
2019,03,30,00,00,4.40
2019,03,30,00,01,4.40
2019,03,30,00,02,4.40
2019,03,30,00,03,4.40
2019,03,30,00,04,4.40
2019,03,30,00,05,4.40
2019,03,30,00,06,4.40
2019,03,30,00,07,4.40
2019,03,30,00,08,4.40
2019,03,30,00,09,4.40
2019,03,30,00,10,4.40
2019,03,30,00,11,4.40
2019,03,30,00,12,4.40
2019,03,30,00,13,4.40
2019,03,30,00,14,4.40
2019,03,30,00,15,4.40
2019,03,30,00,16,4.40
2019,03,30,00,17,4.40
2019,03,30,00,18,4.40
2019,03,30,00,19,4.40
2019,03,30,00,20,4.40
2019,03,30,00,21,4.40
2019,03,30,00,22,4.30
2019,03,30,00,23,4.30
2019,03,30,00,24,4.30
2019,03,30,00,25,4.30
2019,03,30,00,26,4.30
2019,03,30,00,27,4.30
2019,03,30,00,28,4.30
2019,03,30,00,29,4.30
2019,03,30,00,30,4.30
2019,03,30,00,31,4.30
2019,03,30,00,32,4.30
2019,03,30,00,33,4.30
2019,03,30,00,34,4.20
2019,03,30,00,35,4.20
2019,03,30,00,36,4.20
2019,03,30,00,37,4.20
2019,03,30,00,38,4.20
2019,03,30,00,39,4.20
2019,03,30,00,40,4.20
2019,03,30,00,41,4.20
2019,03,30,00,42,4.10
2019,03,30,00,43,4.10
2019,03,30,00,44,4.10
2019,03,30,00,45,4.10
2019,03,30,00,46,4.10
2019,03,30,00,47,4.10
2019,03,30,00,48,4.10
2019,03,30,00,49,4.10
2019,03,30,00,50,4.00
2019,03,30,00,51,4.00
2019,03,30,00,52,4.00
2019,03,30,00,53,4.00
2019,03,30,00,54,4.00
2019,03,30,00,55,4.00
2019,03,30,00,56,4.00
2019,03,30,00,57,3.90
2019,03,30,00,58,3.90
2019,03,30,00,59,3.90
2019,03,30,01,00,3.90
2019,03,30,01,01,3.90
2019,03,30,01,02,3.90
2019,03,30,01,03,3.90
2019,03,30,01,04,3.90
2019,03,30,01,05,3.90
2019,03,30,01,06,3.90
2019,03,30,01,07,3.90
2019,03,30,01,08,3.90
2019,03,30,01,09,3.90
2019,03,30,01,10,3.90
2019,03,30,01,11,3.90
2019,03,30,01,12,3.90
2019,03,30,01,13,3.90
2019,03,30,01,14,3.90
2019,03,30,01,15,3.90
2019,03,30,01,16,3.80
2019,03,30,01,17,3.80
2019,03,30,01,18,3.80
2019,03,30,01,19,3.80
2019,03,30,01,20,3.80
2019,03,30,01,21,3.80
2019,03,30,01,22,3.80
2019,03,30,01,23,3.80
2019,03,30,01,24,3.80
2019,03,30,01,25,3.80
2019,03,30,01,26,3.80
2019,03,30,01,27,3.80
2019,03,30,01,28,3.70
2019,03,30,01,29,3.70
2019,03,30,01,30,3.70
2019,03,30,01,31,3.70
2019,03,30,01,32,3.70
2019,03,30,01,33,3.70
2019,03,30,01,34,3.70
2019,03,30,01,35,3.70
2019,03,30,01,36,3.70
2019,03,30,01,37,3.70
2019,03,30,01,38,3.70
2019,03,30,01,39,3.70
2019,03,30,01,40,3.70
2019,03,30,01,41,3.70
2019,03,30,01,42,3.60
2019,03,30,01,43,3.60
2019,03,30,01,44,3.60
2019,03,30,01,45,3.60
2019,03,30,01,46,3.60
2019,03,30,01,47,3.60
2019,03,30,01,48,3.60
2019,03,30,01,49,3.60
2019,03,30,01,50,3.50
2019,03,30,01,51,3.50
2019,03,30,01,52,3.50
2019,03,30,01,53,3.50
2019,03,30,01,54,3.50
2019,03,30,01,55,3.50
2019,03,30,01,56,3.40
2019,03,30,01,57,3.40
2019,03,30,01,58,3.40
2019,03,30,01,59,3.40
2019,03,30,02,00,3.40
2019,03,30,02,01,3.40
2019,03,30,02,02,3.40
2019,03,30,02,03,3.40
2019,03,30,02,04,3.40
2019,03,30,02,05,3.40
2019,03,30,02,06,3.40
2019,03,30,02,07,3.40
2019,03,30,02,08,3.40
2019,03,30,02,09,3.40
2019,03,30,02,10,3.40
2019,03,30,02,11,3.40
2019,03,30,02,12,3.40
2019,03,30,02,13,3.30
2019,03,30,02,14,3.30
2019,03,30,02,15,3.30
2019,03,30,02,16,3.30
2019,03,30,02,17,3.30
2019,03,30,02,18,3.30
2019,03,30,02,19,3.30
2019,03,30,02,20,3.20
2019,03,30,02,21,3.20
2019,03,30,02,22,3.20
2019,03,30,02,23,3.20
2019,03,30,02,24,3.20
2019,03,30,02,25,3.20
2019,03,30,02,26,3.20
2019,03,30,02,27,3.20
2019,03,30,02,28,3.20
2019,03,30,02,29,3.20
2019,03,30,02,30,3.20
2019,03,30,02,31,3.10
2019,03,30,02,32,3.10
2019,03,30,02,33,3.10
2019,03,30,02,34,3.10
2019,03,30,02,35,3.10
2019,03,30,02,36,3.10
2019,03,30,02,37,3.10
2019,03,30,02,38,3.10
2019,03,30,02,39,3.10
2019,03,30,02,40,3.10
2019,03,30,02,41,3.10
2019,03,30,02,42,3.00
2019,03,30,02,43,3.00
2019,03,30,02,44,3.00
2019,03,30,02,45,3.00
2019,03,30,02,46,3.00
2019,03,30,02,47,3.00
2019,03,30,02,48,3.00
2019,03,30,02,49,3.00
2019,03,30,02,50,2.90
2019,03,30,02,51,2.90
2019,03,30,02,52,2.90
2019,03,30,02,53,2.90
2019,03,30,02,54,2.90
2019,03,30,02,55,2.90
2019,03,30,02,56,2.90
2019,03,30,02,57,2.90
2019,03,30,02,58,2.90
2019,03,30,02,59,2.90
2019,03,30,03,00,2.90
2019,03,30,03,01,2.80
2019,03,30,03,02,2.80
2019,03,30,03,03,2.90
2019,03,30,03,04,2.80
2019,03,30,03,05,2.80
2019,03,30,03,06,2.80
2019,03,30,03,07,2.80
2019,03,30,03,08,2.80
2019,03,30,03,09,2.80
2019,03,30,03,10,2.80
2019,03,30,03,11,2.80
2019,03,30,03,12,2.80
2019,03,30,03,13,2.80
2019,03,30,03,14,2.80
2019,03,30,03,15,2.80
2019,03,30,03,16,2.80
2019,03,30,03,17,2.80
2019,03,30,03,18,2.70
2019,03,30,03,19,2.70
2019,03,30,03,20,2.70
2019,03,30,03,21,2.70
2019,03,30,03,22,2.70
2019,03,30,03,23,2.70
2019,03,30,03,24,2.70
2019,03,30,03,25,2.70
2019,03,30,03,26,2.70
2019,03,30,03,27,2.70
2019,03,30,03,28,2.70
2019,03,30,03,29,2.70
2019,03,30,03,30,2.70
2019,03,30,03,31,2.70
2019,03,30,03,32,2.70
2019,03,30,03,33,2.70
2019,03,30,03,34,2.70
2019,03,30,03,35,2.70
2019,03,30,03,36,2.70
2019,03,30,03,37,2.70
2019,03,30,03,38,2.70
2019,03,30,03,39,2.60
2019,03,30,03,40,2.60
2019,03,30,03,41,2.60
2019,03,30,03,42,2.60
2019,03,30,03,43,2.60
2019,03,30,03,44,2.60
2019,03,30,03,45,2.60
2019,03,30,03,46,2.60
2019,03,30,03,47,2.60
2019,03,30,03,48,2.60
2019,03,30,03,49,2.60
2019,03,30,03,50,2.60
2019,03,30,03,51,2.50
2019,03,30,03,52,2.50
2019,03,30,03,53,2.50
2019,03,30,03,54,2.50
2019,03,30,03,55,2.50
2019,03,30,03,56,2.50
2019,03,30,03,57,2.40
2019,03,30,03,58,2.40
2019,03,30,03,59,2.40
2019,03,30,04,00,2.40
2019,03,30,04,01,2.40
2019,03,30,04,02,2.40
2019,03,30,04,03,2.40
2019,03,30,04,04,2.40
2019,03,30,04,05,2.40
2019,03,30,04,06,2.40
2019,03,30,04,07,2.40
2019,03,30,04,08,2.40
2019,03,30,04,09,2.40
2019,03,30,04,10,2.40
2019,03,30,04,11,2.40
2019,03,30,04,12,2.40
2019,03,30,04,13,2.40
2019,03,30,04,14,2.40
2019,03,30,04,15,2.30
2019,03,30,04,16,2.30
2019,03,30,04,17,2.30
2019,03,30,04,18,2.30
2019,03,30,04,19,2.30
2019,03,30,04,20,2.30
2019,03,30,04,21,2.30
2019,03,30,04,22,2.30
2019,03,30,04,23,2.30
2019,03,30,04,24,2.30
2019,03,30,04,25,2.30
2019,03,30,04,26,2.30
2019,03,30,04,27,2.30
2019,03,30,04,28,2.30
2019,03,30,04,29,2.30
2019,03,30,04,30,2.30
2019,03,30,04,31,2.30
2019,03,30,04,32,2.30
2019,03,30,04,33,2.20
2019,03,30,04,34,2.20
2019,03,30,04,35,2.20
2019,03,30,04,36,2.20
2019,03,30,04,37,2.20
2019,03,30,04,38,2.20
2019,03,30,04,39,2.20
2019,03,30,04,40,2.20
2019,03,30,04,41,2.20
2019,03,30,04,42,2.20
2019,03,30,04,43,2.20
2019,03,30,04,44,2.20
2019,03,30,04,45,2.20
2019,03,30,04,46,2.20
2019,03,30,04,47,2.20
2019,03,30,04,48,2.20
2019,03,30,04,49,2.20
2019,03,30,04,50,2.20
2019,03,30,04,51,2.10
2019,03,30,04,52,2.10
2019,03,30,04,53,2.10
2019,03,30,04,54,2.10
2019,03,30,04,55,2.10
2019,03,30,04,56,2.10
2019,03,30,04,57,2.10
2019,03,30,04,58,2.10
2019,03,30,04,59,2.10
2019,03,30,05,00,2.10
2019,03,30,05,01,2.10
2019,03,30,05,02,2.10
2019,03,30,05,03,2.10
2019,03,30,05,04,2.10
2019,03,30,05,05,2.10
2019,03,30,05,06,2.10
2019,03,30,05,07,2.10
2019,03,30,05,08,2.00
2019,03,30,05,09,2.10
2019,03,30,05,10,2.10
2019,03,30,05,11,2.10
2019,03,30,05,12,2.10
2019,03,30,05,13,2.10
2019,03,30,05,14,2.10
2019,03,30,05,15,2.10
2019,03,30,05,16,2.10
2019,03,30,05,17,2.10
2019,03,30,05,18,2.10
2019,03,30,05,19,2.10
2019,03,30,05,20,2.00
2019,03,30,05,21,2.00
2019,03,30,05,22,2.00
2019,03,30,05,23,2.00
2019,03,30,05,24,2.10
2019,03,30,05,25,2.00
2019,03,30,05,26,2.00
2019,03,30,05,27,2.10
2019,03,30,05,28,2.00
2019,03,30,05,29,2.00
2019,03,30,05,30,2.00
2019,03,30,05,31,2.00
2019,03,30,05,32,2.00
2019,03,30,05,33,2.00
2019,03,30,05,34,2.00
2019,03,30,05,35,2.00
2019,03,30,05,36,1.90
2019,03,30,05,37,1.90
2019,03,30,05,38,1.90
2019,03,30,05,39,1.90
2019,03,30,05,40,1.90
2019,03,30,05,41,1.90
2019,03,30,05,42,1.90
2019,03,30,05,43,1.90
2019,03,30,05,44,1.90
2019,03,30,05,45,1.90
2019,03,30,05,46,1.90
2019,03,30,05,47,1.90
2019,03,30,05,48,1.90
2019,03,30,05,49,1.90
2019,03,30,05,50,1.90
2019,03,30,05,51,1.80
2019,03,30,05,52,1.80
2019,03,30,05,53,1.80
2019,03,30,05,54,1.80
2019,03,30,05,55,1.80
2019,03,30,05,56,1.80
2019,03,30,05,57,1.80
2019,03,30,05,58,1.80
2019,03,30,05,59,1.80
2019,03,30,06,00,1.90
2019,03,30,06,01,1.80
2019,03,30,06,02,1.80
2019,03,30,06,03,1.90
2019,03,30,06,04,1.90
2019,03,30,06,05,1.80
2019,03,30,06,06,1.90
2019,03,30,06,07,1.90
2019,03,30,06,08,1.90
2019,03,30,06,09,1.80
2019,03,30,06,10,1.80
2019,03,30,06,11,1.80
2019,03,30,06,12,1.80
2019,03,30,06,13,1.90
2019,03,30,06,14,1.90
2019,03,30,06,15,1.90
2019,03,30,06,16,1.80
2019,03,30,06,17,1.90
2019,03,30,06,18,1.80
2019,03,30,06,19,1.80
2019,03,30,06,20,1.80
2019,03,30,06,21,1.90
2019,03,30,06,22,1.80
2019,03,30,06,23,1.80
2019,03,30,06,24,1.80
2019,03,30,06,25,1.80
2019,03,30,06,26,1.80
2019,03,30,06,27,1.80
2019,03,30,06,28,1.80
2019,03,30,06,29,1.80
2019,03,30,06,30,1.80
2019,03,30,06,31,1.80
2019,03,30,06,32,1.80
2019,03,30,06,33,1.80
2019,03,30,06,34,1.80
2019,03,30,06,35,1.80
2019,03,30,06,36,1.80
2019,03,30,06,37,1.80
2019,03,30,06,38,1.80
2019,03,30,06,39,1.80
2019,03,30,06,40,1.80
2019,03,30,06,41,1.80
2019,03,30,06,42,1.80
2019,03,30,06,43,1.80
2019,03,30,06,44,1.80
2019,03,30,06,45,1.80
2019,03,30,06,46,1.80
2019,03,30,06,47,1.80
2019,03,30,06,48,1.80
2019,03,30,06,49,1.80
2019,03,30,06,50,1.70
2019,03,30,06,51,1.70
2019,03,30,06,52,1.70
2019,03,30,06,53,1.70
2019,03,30,06,54,1.70
2019,03,30,06,55,1.70
2019,03,30,06,56,1.70
2019,03,30,06,57,1.70
2019,03,30,06,58,1.70
2019,03,30,06,59,1.70
2019,03,30,07,00,1.80
2019,03,30,07,01,1.80
2019,03,30,07,02,1.80
2019,03,30,07,03,1.80
2019,03,30,07,04,1.70
2019,03,30,07,05,1.70
2019,03,30,07,06,1.70
2019,03,30,07,07,1.70
2019,03,30,07,08,1.70
2019,03,30,07,09,1.70
2019,03,30,07,10,1.70
2019,03,30,07,11,1.70
2019,03,30,07,12,1.70
2019,03,30,07,13,1.70
2019,03,30,07,14,1.70
2019,03,30,07,15,1.70
2019,03,30,07,16,1.70
2019,03,30,07,17,1.70
2019,03,30,07,18,1.70
2019,03,30,07,19,1.70
2019,03,30,07,20,1.70
2019,03,30,07,21,1.70
2019,03,30,07,22,1.70
2019,03,30,07,23,1.70
2019,03,30,07,24,1.70
2019,03,30,07,25,1.70
2019,03,30,07,26,1.70
2019,03,30,07,27,1.70
2019,03,30,07,28,1.70
2019,03,30,07,29,1.70
2019,03,30,07,30,1.70
2019,03,30,07,31,1.70
2019,03,30,07,32,1.70
2019,03,30,07,33,1.70
2019,03,30,07,34,1.70
2019,03,30,07,35,1.80
2019,03,30,07,36,1.80
2019,03,30,07,37,1.80
2019,03,30,07,38,1.80
2019,03,30,07,39,1.80
2019,03,30,07,40,1.80
2019,03,30,07,41,1.80
2019,03,30,07,42,1.80
2019,03,30,07,43,1.80
2019,03,30,07,44,1.80
2019,03,30,07,45,1.80
2019,03,30,07,46,1.80
2019,03,30,07,47,1.80
2019,03,30,07,48,1.80
2019,03,30,07,49,1.80
2019,03,30,07,50,1.80
2019,03,30,07,51,1.80
2019,03,30,07,52,1.90
2019,03,30,07,53,1.90
2019,03,30,07,54,1.90
2019,03,30,07,55,1.90
2019,03,30,07,56,1.90
2019,03,30,07,57,1.90
2019,03,30,07,58,1.90
2019,03,30,07,59,2.00
2019,03,30,08,00,2.00
2019,03,30,08,01,2.00
2019,03,30,08,02,2.10
2019,03,30,08,03,2.10
2019,03,30,08,04,2.10
2019,03,30,08,05,2.10
2019,03,30,08,06,2.20
2019,03,30,08,07,2.20
2019,03,30,08,08,2.20
2019,03,30,08,09,2.20
2019,03,30,08,10,2.20
2019,03,30,08,11,2.20
2019,03,30,08,12,2.30
2019,03,30,08,13,2.30
2019,03,30,08,14,2.30
2019,03,30,08,15,2.40
2019,03,30,08,16,2.50
2019,03,30,08,17,2.50
2019,03,30,08,18,2.60
2019,03,30,08,19,2.60
2019,03,30,08,20,2.60
2019,03,30,08,21,2.60
2019,03,30,08,22,2.70
2019,03,30,08,23,2.70
2019,03,30,08,24,2.80
2019,03,30,08,25,2.90
2019,03,30,08,26,2.90
2019,03,30,08,27,3.00
2019,03,30,08,28,3.10
2019,03,30,08,29,3.20
2019,03,30,08,30,3.30
2019,03,30,08,31,3.40
2019,03,30,08,32,3.50
2019,03,30,08,33,3.60
2019,03,30,08,34,3.70
2019,03,30,08,35,3.80
2019,03,30,08,36,3.90
2019,03,30,08,37,4.00
2019,03,30,08,38,4.10
2019,03,30,08,39,4.20
2019,03,30,08,40,4.30
2019,03,30,08,41,4.40
2019,03,30,08,42,4.50
2019,03,30,08,43,4.60
2019,03,30,08,44,4.70
2019,03,30,08,45,4.80
2019,03,30,08,46,4.90
2019,03,30,08,47,5.00
2019,03,30,08,48,5.10
2019,03,30,08,49,5.20
2019,03,30,08,50,5.30
2019,03,30,08,51,5.40
2019,03,30,08,52,5.40
2019,03,30,08,53,5.50
2019,03,30,08,54,5.60
2019,03,30,08,55,5.70
2019,03,30,08,56,5.80
2019,03,30,08,57,5.90
2019,03,30,08,58,6.00
2019,03,30,08,59,6.10
2019,03,30,09,00,6.20
2019,03,30,09,01,6.30
2019,03,30,09,02,6.40
2019,03,30,09,03,6.50
2019,03,30,09,04,6.60
2019,03,30,09,05,6.60
2019,03,30,09,06,6.70
2019,03,30,09,07,6.80
2019,03,30,09,08,6.90
2019,03,30,09,09,7.00
2019,03,30,09,10,7.20
2019,03,30,09,11,7.30
2019,03,30,09,12,7.50
2019,03,30,09,13,7.60
2019,03,30,09,14,7.80
2019,03,30,09,15,7.90
2019,03,30,09,16,8.00
2019,03,30,09,17,8.10
2019,03,30,09,18,8.30
2019,03,30,09,19,8.40
2019,03,30,09,20,8.60
2019,03,30,09,21,8.70
2019,03,30,09,22,8.90
2019,03,30,09,23,9.10
2019,03,30,09,24,9.20
2019,03,30,09,25,9.40
2019,03,30,09,26,9.50
2019,03,30,09,27,9.70
2019,03,30,09,28,9.80
2019,03,30,09,29,9.90
2019,03,30,09,30,10.00
2019,03,30,09,31,10.10
2019,03,30,09,32,10.20
2019,03,30,09,33,10.30
2019,03,30,09,34,10.40
2019,03,30,09,35,10.40
2019,03,30,09,36,10.50
2019,03,30,09,37,10.60
2019,03,30,09,38,10.60
2019,03,30,09,39,10.70
2019,03,30,09,40,10.80
2019,03,30,09,41,10.80
2019,03,30,09,42,10.90
2019,03,30,09,43,11.00
2019,03,30,09,44,11.10
2019,03,30,09,45,11.20
2019,03,30,09,46,11.20
2019,03,30,09,47,11.30
2019,03,30,09,48,11.40
2019,03,30,09,49,11.50
2019,03,30,09,50,11.50
2019,03,30,09,51,11.60
2019,03,30,09,52,11.60
2019,03,30,09,53,11.60
2019,03,30,09,54,11.70
2019,03,30,09,55,11.80
2019,03,30,09,56,11.80
2019,03,30,09,57,11.90
2019,03,30,09,58,12.00
2019,03,30,09,59,12.10
2019,03,30,10,00,12.20
2019,03,30,10,01,12.30
2019,03,30,10,02,12.40
2019,03,30,10,03,12.40
2019,03,30,10,04,12.50
2019,03,30,10,05,12.50
2019,03,30,10,06,12.60
2019,03,30,10,07,12.60
2019,03,30,10,08,12.70
2019,03,30,10,09,12.80
2019,03,30,10,10,12.80
2019,03,30,10,11,12.80
2019,03,30,10,12,12.70
2019,03,30,10,13,12.60
2019,03,30,10,14,12.60
2019,03,30,10,15,12.60
2019,03,30,10,16,12.50
2019,03,30,10,17,12.50
2019,03,30,10,18,12.40
2019,03,30,10,19,12.40
2019,03,30,10,20,12.40
2019,03,30,10,21,12.40
2019,03,30,10,22,12.40
2019,03,30,10,23,12.40
2019,03,30,10,24,12.40
2019,03,30,10,25,12.30
2019,03,30,10,26,12.30
2019,03,30,10,27,12.20
2019,03,30,10,28,12.20
2019,03,30,10,29,12.20
2019,03,30,10,30,12.10
2019,03,30,10,31,12.20
2019,03,30,10,32,12.10
2019,03,30,10,33,12.10
2019,03,30,10,34,12.20
2019,03,30,10,35,12.20
2019,03,30,10,36,12.20
2019,03,30,10,37,12.20
2019,03,30,10,38,12.20
2019,03,30,10,39,12.30
2019,03,30,10,40,12.30
2019,03,30,10,41,12.30
2019,03,30,10,42,12.30
2019,03,30,10,43,12.30
2019,03,30,10,44,12.30
2019,03,30,10,45,12.30
2019,03,30,10,46,12.30
2019,03,30,10,47,12.30
2019,03,30,10,48,12.30
2019,03,30,10,49,12.20
2019,03,30,10,50,12.20
2019,03,30,10,51,12.20
2019,03,30,10,52,12.20
2019,03,30,10,53,12.10
2019,03,30,10,54,12.10
2019,03,30,10,55,12.00
2019,03,30,10,56,11.90
2019,03,30,10,57,11.80
2019,03,30,10,58,11.80
2019,03,30,10,59,11.70
2019,03,30,11,00,11.70
2019,03,30,11,01,11.70
2019,03,30,11,02,11.80
2019,03,30,11,03,11.90
2019,03,30,11,04,12.00
2019,03,30,11,05,12.10
2019,03,30,11,06,12.20
2019,03,30,11,07,12.30
2019,03,30,11,08,12.40
2019,03,30,11,09,12.40
2019,03,30,11,10,12.40
2019,03,30,11,11,12.40
2019,03,30,11,12,12.50
2019,03,30,11,13,12.50
2019,03,30,11,14,12.60
2019,03,30,11,15,12.60
2019,03,30,11,16,12.70
2019,03,30,11,17,12.70
2019,03,30,11,18,12.70
2019,03,30,11,19,12.80
2019,03,30,11,20,12.80
2019,03,30,11,21,12.80
2019,03,30,11,22,12.80
2019,03,30,11,23,12.80
2019,03,30,11,24,12.80
2019,03,30,11,25,12.80
2019,03,30,11,26,12.80
2019,03,30,11,27,12.70
2019,03,30,11,28,12.70
2019,03,30,11,29,12.80
2019,03,30,11,30,12.80
2019,03,30,11,31,12.80
2019,03,30,11,32,12.80
2019,03,30,11,33,12.80
2019,03,30,11,34,12.80
2019,03,30,11,35,12.80
2019,03,30,11,36,12.80
2019,03,30,11,37,12.80
2019,03,30,11,38,12.80
2019,03,30,11,39,12.80
2019,03,30,11,40,12.90
2019,03,30,11,41,13.00
2019,03,30,11,42,13.00
2019,03,30,11,43,13.10
2019,03,30,11,44,13.10
2019,03,30,11,45,13.10
2019,03,30,11,46,13.10
2019,03,30,11,47,13.10
2019,03,30,11,48,13.00
2019,03,30,11,49,12.90
2019,03,30,11,50,12.90
2019,03,30,11,51,12.80
2019,03,30,11,52,12.80
2019,03,30,11,53,12.80
2019,03,30,11,54,12.80
2019,03,30,11,55,12.90
2019,03,30,11,56,12.90
2019,03,30,11,57,12.90
2019,03,30,11,58,12.90
2019,03,30,11,59,12.90
2019,03,30,12,00,13.00
2019,03,30,12,01,13.00
2019,03,30,12,02,13.00
2019,03,30,12,03,12.90
2019,03,30,12,04,12.80
2019,03,30,12,05,12.80
2019,03,30,12,06,12.70
2019,03,30,12,07,12.70
2019,03,30,12,08,12.80
2019,03,30,12,09,12.90
2019,03,30,12,10,13.00
2019,03,30,12,11,13.10
2019,03,30,12,12,13.20
2019,03,30,12,13,13.30
2019,03,30,12,14,13.30
2019,03,30,12,15,13.40
2019,03,30,12,16,13.40
2019,03,30,12,17,13.50
2019,03,30,12,18,13.50
2019,03,30,12,19,13.50
2019,03,30,12,20,13.60
2019,03,30,12,21,13.60
2019,03,30,12,22,13.60
2019,03,30,12,23,13.60
2019,03,30,12,24,13.70
2019,03,30,12,25,13.80
2019,03,30,12,26,13.80
2019,03,30,12,27,13.80
2019,03,30,12,28,13.80
2019,03,30,12,29,13.80
2019,03,30,12,30,13.80
2019,03,30,12,31,13.80
2019,03,30,12,32,13.90
2019,03,30,12,33,13.90
2019,03,30,12,34,14.00
2019,03,30,12,35,14.10
2019,03,30,12,36,14.10
2019,03,30,12,37,14.20
2019,03,30,12,38,14.20
2019,03,30,12,39,14.30
2019,03,30,12,40,14.30
2019,03,30,12,41,14.40
2019,03,30,12,42,14.40
2019,03,30,12,43,14.50
2019,03,30,12,44,14.50
2019,03,30,12,45,14.60
2019,03,30,12,46,14.60
2019,03,30,12,47,14.70
2019,03,30,12,48,14.70
2019,03,30,12,49,14.50
2019,03,30,12,50,14.40
2019,03,30,12,51,14.30
2019,03,30,12,52,14.30
2019,03,30,12,53,14.30
2019,03,30,12,54,14.30
2019,03,30,12,55,14.30
2019,03,30,12,56,14.30
2019,03,30,12,57,14.30
2019,03,30,12,58,14.30
2019,03,30,12,59,14.40
2019,03,30,13,00,14.50
2019,03,30,13,01,14.60
2019,03,30,13,02,14.60
2019,03,30,13,03,14.60
2019,03,30,13,04,14.50
2019,03,30,13,05,14.50
2019,03,30,13,06,14.40
2019,03,30,13,07,14.40
2019,03,30,13,08,14.50
2019,03,30,13,09,14.60
2019,03,30,13,10,14.70
2019,03,30,13,11,14.80
2019,03,30,13,12,14.80
2019,03,30,13,13,14.70
2019,03,30,13,14,14.60
2019,03,30,13,15,14.60
2019,03,30,13,16,14.60
2019,03,30,13,17,14.60
2019,03,30,13,18,14.50
2019,03,30,13,19,14.40
2019,03,30,13,20,14.40
2019,03,30,13,21,14.40
2019,03,30,13,22,14.40
2019,03,30,13,23,14.40
2019,03,30,13,24,14.40
2019,03,30,13,25,14.40
2019,03,30,13,26,14.30
2019,03,30,13,27,14.30
2019,03,30,13,28,14.30
2019,03,30,13,29,14.40
2019,03,30,13,30,14.40
2019,03,30,13,31,14.40
2019,03,30,13,32,14.40
2019,03,30,13,33,14.50
2019,03,30,13,34,14.50
2019,03,30,13,35,14.50
2019,03,30,13,36,14.60
2019,03,30,13,37,14.70
2019,03,30,13,38,14.70
2019,03,30,13,39,14.70
2019,03,30,13,40,14.60
2019,03,30,13,41,14.60
2019,03,30,13,42,14.70
2019,03,30,13,43,14.70
2019,03,30,13,44,14.70
2019,03,30,13,45,14.70
2019,03,30,13,46,14.70
2019,03,30,13,47,14.60
2019,03,30,13,48,14.50
2019,03,30,13,49,14.50
2019,03,30,13,50,14.50
2019,03,30,13,51,14.50
2019,03,30,13,52,14.60
2019,03,30,13,53,14.80
2019,03,30,13,54,14.90
2019,03,30,13,55,15.00
2019,03,30,13,56,15.00
2019,03,30,13,57,15.00
2019,03,30,13,58,15.10
2019,03,30,13,59,15.20
2019,03,30,14,00,15.20
2019,03,30,14,01,15.20
2019,03,30,14,02,15.20
2019,03,30,14,03,15.20
2019,03,30,14,04,15.10
2019,03,30,14,05,15.20
2019,03,30,14,06,15.20
2019,03,30,14,07,15.30
2019,03,30,14,08,15.30
2019,03,30,14,09,15.20
2019,03,30,14,10,15.20
2019,03,30,14,11,15.20
2019,03,30,14,12,15.20
2019,03,30,14,13,15.20
2019,03,30,14,14,15.30
2019,03,30,14,15,15.30
2019,03,30,14,16,15.30
2019,03,30,14,17,15.30
2019,03,30,14,18,15.40
2019,03,30,14,19,15.40
2019,03,30,14,20,15.40
2019,03,30,14,21,15.40
2019,03,30,14,22,15.40
2019,03,30,14,23,15.50
2019,03,30,14,24,15.50
2019,03,30,14,25,15.40
2019,03,30,14,26,15.40
2019,03,30,14,27,15.40
2019,03,30,14,28,15.40
2019,03,30,14,29,15.40
2019,03,30,14,30,15.50
2019,03,30,14,31,15.50
2019,03,30,14,32,15.60
2019,03,30,14,33,15.60
2019,03,30,14,34,15.70
2019,03,30,14,35,15.70
2019,03,30,14,36,15.80
2019,03,30,14,37,15.80
2019,03,30,14,38,15.80
2019,03,30,14,39,15.80
2019,03,30,14,40,15.80
2019,03,30,14,41,15.80
2019,03,30,14,42,15.90
2019,03,30,14,43,15.90
2019,03,30,14,44,15.80
2019,03,30,14,45,15.80
2019,03,30,14,46,15.80
2019,03,30,14,47,15.70
2019,03,30,14,48,15.60
2019,03,30,14,49,15.50
2019,03,30,14,50,15.50
2019,03,30,14,51,15.50
2019,03,30,14,52,15.40
2019,03,30,14,53,15.30
2019,03,30,14,54,15.30
2019,03,30,14,55,15.30
2019,03,30,14,56,15.40
2019,03,30,14,57,15.50
2019,03,30,14,58,15.60
2019,03,30,14,59,15.60
2019,03,30,15,00,15.70
2019,03,30,15,01,15.80
2019,03,30,15,02,15.80
2019,03,30,15,03,15.80
2019,03,30,15,04,15.80
2019,03,30,15,05,15.90
2019,03,30,15,06,15.90
2019,03,30,15,07,15.90
2019,03,30,15,08,15.80
2019,03,30,15,09,15.90
2019,03,30,15,10,15.90
2019,03,30,15,11,15.90
2019,03,30,15,12,15.90
2019,03,30,15,13,15.90
2019,03,30,15,14,15.90
2019,03,30,15,15,15.80
2019,03,30,15,16,15.70
2019,03,30,15,17,15.60
2019,03,30,15,18,15.50
2019,03,30,15,19,15.40
2019,03,30,15,20,15.40
2019,03,30,15,21,15.50
2019,03,30,15,22,15.50
2019,03,30,15,23,15.60
2019,03,30,15,24,15.60
2019,03,30,15,25,15.70
2019,03,30,15,26,15.60
2019,03,30,15,27,15.60
2019,03,30,15,28,15.50
2019,03,30,15,29,15.40
2019,03,30,15,30,15.40
2019,03,30,15,31,15.40
2019,03,30,15,32,15.40
2019,03,30,15,33,15.30
2019,03,30,15,34,15.30
2019,03,30,15,35,15.20
2019,03,30,15,36,15.20
2019,03,30,15,37,15.10
2019,03,30,15,38,15.10
2019,03,30,15,39,15.10
2019,03,30,15,40,15.00
2019,03,30,15,41,15.00
2019,03,30,15,42,15.00
2019,03,30,15,43,15.00
2019,03,30,15,44,15.00
2019,03,30,15,45,15.00
2019,03,30,15,46,15.00
2019,03,30,15,47,15.00
2019,03,30,15,48,15.00
2019,03,30,15,49,15.00
2019,03,30,15,50,15.00
2019,03,30,15,51,15.00
2019,03,30,15,52,15.00
2019,03,30,15,53,15.00
2019,03,30,15,54,15.00
2019,03,30,15,55,15.00
2019,03,30,15,56,15.00
2019,03,30,15,57,15.00
2019,03,30,15,58,15.00
2019,03,30,15,59,15.00
2019,03,30,16,00,15.00
2019,03,30,16,01,15.00
2019,03,30,16,02,15.00
2019,03,30,16,03,15.00
2019,03,30,16,04,15.00
2019,03,30,16,05,15.00
2019,03,30,16,06,15.00
2019,03,30,16,07,15.00
2019,03,30,16,08,15.00
2019,03,30,16,09,15.00
2019,03,30,16,10,15.00
2019,03,30,16,11,15.00
2019,03,30,16,12,15.00
2019,03,30,16,13,15.00
2019,03,30,16,14,15.00
2019,03,30,16,15,15.00
2019,03,30,16,16,15.00
2019,03,30,16,17,15.00
2019,03,30,16,18,15.00
2019,03,30,16,19,15.00
2019,03,30,16,20,15.00
2019,03,30,16,21,15.00
2019,03,30,16,22,15.00
2019,03,30,16,23,15.00
2019,03,30,16,24,15.00
2019,03,30,16,25,15.00
2019,03,30,16,26,15.00
2019,03,30,16,27,15.00
2019,03,30,16,28,15.00
2019,03,30,16,29,15.00
2019,03,30,16,30,15.00
2019,03,30,16,31,15.00
2019,03,30,16,32,15.00
2019,03,30,16,33,15.00
2019,03,30,16,34,14.90
2019,03,30,16,35,14.80
2019,03,30,16,36,14.80
2019,03,30,16,37,14.80
2019,03,30,16,38,14.80
2019,03,30,16,39,14.80
2019,03,30,16,40,14.70
2019,03,30,16,41,14.70
2019,03,30,16,42,14.70
2019,03,30,16,43,14.70
2019,03,30,16,44,14.70
2019,03,30,16,45,14.70
2019,03,30,16,46,14.70
2019,03,30,16,47,14.70
2019,03,30,16,48,14.70
2019,03,30,16,49,14.70
2019,03,30,16,50,14.70
2019,03,30,16,51,14.70
2019,03,30,16,52,14.70
2019,03,30,16,53,14.80
2019,03,30,16,54,14.80
2019,03,30,16,55,14.80
2019,03,30,16,56,14.80
2019,03,30,16,57,14.80
2019,03,30,16,58,14.80
2019,03,30,16,59,14.80
2019,03,30,17,00,14.80
2019,03,30,17,01,14.80
2019,03,30,17,02,14.80
2019,03,30,17,03,14.80
2019,03,30,17,04,14.80
2019,03,30,17,05,14.80
2019,03,30,17,06,14.80
2019,03,30,17,07,14.90
2019,03,30,17,08,14.90
2019,03,30,17,09,14.90
2019,03,30,17,10,14.90
2019,03,30,17,11,14.90
2019,03,30,17,12,14.90
2019,03,30,17,13,14.90
2019,03,30,17,14,14.90
2019,03,30,17,15,14.90
2019,03,30,17,16,15.00
2019,03,30,17,17,15.00
2019,03,30,17,18,15.00
2019,03,30,17,19,15.00
2019,03,30,17,20,15.00
2019,03,30,17,21,15.00
2019,03,30,17,22,15.00
2019,03,30,17,23,15.00
2019,03,30,17,24,15.00
2019,03,30,17,25,15.00
2019,03,30,17,26,15.00
2019,03,30,17,27,15.00
2019,03,30,17,28,15.00
2019,03,30,17,29,15.00
2019,03,30,17,30,15.00
2019,03,30,17,31,15.00
2019,03,30,17,32,15.00
2019,03,30,17,33,15.00
2019,03,30,17,34,15.00
2019,03,30,17,35,15.00
2019,03,30,17,36,15.00
2019,03,30,17,37,15.00
2019,03,30,17,38,15.00
2019,03,30,17,39,15.00
2019,03,30,17,40,15.00
2019,03,30,17,41,15.00
2019,03,30,17,42,15.00
2019,03,30,17,43,15.00
2019,03,30,17,44,15.00